This is the latest recevied weather packets stored in our database for station/object LX0APE-4. If no packets are shown the sender has not sent any weather packets the latest 10 day(s).
| Time | Temp. | Humidity | Pressure | Rain* | Wind** | Luminosity | Snow |
|---|---|---|---|---|---|---|---|
| 1776937341 | 14.44° C | 47% | 5024.7 hPa | 0 mm | - | - | - |
| 1776937041 | 14.44° C | 47% | 5024.6 hPa | 0 mm | - | - | - |
| 1776936741 | 14.44° C | 50% | 5024.8 hPa | 0 mm | - | - | - |
| 1776936442 | 13.89° C | 51% | 5024.6 hPa | 0 mm | - | - | - |
| 1776936141 | 13.89° C | 51% | 5024.8 hPa | 0 mm | - | - | - |
| 1776935841 | 13.33° C | 52% | 5024.7 hPa | 0 mm | - | - | - |
| 1776935541 | 13.33° C | 52% | 5024.9 hPa | 0 mm | - | - | - |
| 1776935241 | 12.78° C | 51% | 5024.9 hPa | 0 mm | - | - | - |
| 1776934941 | 12.78° C | 55% | 5024.9 hPa | 0 mm | - | - | - |
| 1776934641 | 12.22° C | 55% | 5024.8 hPa | 0 mm | - | - | - |
| 1776934341 | 12.22° C | 56% | 5025 hPa | 0 mm | - | - | - |
| 1776934041 | 12.22° C | 56% | 5025 hPa | 0 mm | - | - | - |
| 1776933742 | 11.67° C | 56% | 5025 hPa | 0 mm | - | - | - |
| 1776933441 | 11.67° C | 57% | 5024.9 hPa | 0 mm | - | - | - |
| 1776933141 | 11.67° C | 57% | 5024.8 hPa | 0 mm | - | - | - |
| 1776932845 | 11.11° C | 57% | 5024.8 hPa | 0 mm | - | - | - |
| 1776932541 | 11.11° C | 57% | 5024.9 hPa | 0 mm | - | - | - |
| 1776932241 | 11.11° C | 59% | 5024.9 hPa | 0 mm | - | - | - |
| 1776931941 | 10.56° C | 58% | 5025 hPa | 0 mm | - | - | - |
| 1776931641 | 10.56° C | 60% | 5024.9 hPa | 0 mm | - | - | - |
| 1776931341 | 10° C | 60% | 5024.7 hPa | 0 mm | - | - | - |
| 1776931041 | 10° C | 61% | 5024.7 hPa | 0 mm | - | - | - |
| 1776930741 | 9.44° C | 61% | 5024.8 hPa | 0 mm | - | - | - |
| 1776930441 | 9.44° C | 63% | 5024.8 hPa | 0 mm | - | - | - |
| 1776930141 | 8.89° C | 64% | 5024.7 hPa | 0 mm | - | - | - |
* Rain latest hour (hover to see other rain measurements)
** Current wind speed in m/s (hover to see current wind gust speed)